Location: Rumah Long Bangan
(2.8362°N, 113.7519°E)
Time: 06:22:45
(UTC+00:00)

Meteor 1-31 Rocket - Pass Details

Date: 24 October 2021
Orbit: 519 x 545 km, 97.7° (Epoch: 28 November)

Event Time Altitude Azimuth Distance (km) Brightness Sun altitude
Rises 21:25:53 0° 3° (N) 2,625 6.2 -11.2°
Reaches altitude 10° 21:28:00 10° 358° (N) 1,742 5.2 -10.6°
Maximum altitude 21:31:39 50° 281° (WNW) 665 2.8 -9.8°
Drops below altitude 10° 21:35:19 10° 205° (SSW) 1,756 5.3 -8.9°
Sets 21:37:28 0° 200° (SSW) 2,649 6.2 -8.3°
